[[{"header":{"parameterUnit":"m.s-1","parameterCategory":1,"la1":30.2992,"la2":30.254,"lo1":-89.0895,"lo2":-89.0443,"dy":0.0025,"dx":0.0025,"nx":19,"ny":19,"refTime":"2026-05-07T03:00:00:Z","depth":0,"parameterNumber":2,"parameterNumberName":"U-component_of_WINDS"},"data":[0,0,0,1.0582,1.0584,1.0664,1.0664,1.0768,1.0769,0,0,0,0,0,0,0,0,0,0,0,1.0558,1.0558,1.0582,1.0584,1.0664,1.0664,1.0767,1.0769,0,0,0,0,0,0,0,0,0,0,0,1.0557,1.0558,1.0559,1.0584,1.0664,1.0664,1.0767,1.0707,0,0,0,0,0,0,0,0,0,0,1.0629,1.0605,1.0558,1.0559,1.0585,1.0664,1.0664,1.0704,1.0711,1.0732,0,1.0748,0,1.076,1.0775,1.0776,0,0,0,1.0585,1.06,1.0622,1.0559,1.0586,1.0663,1.0628,1.0708,1.0715,1.074,1.075,1.0754,1.0762,1.0776,1.0777,1.0888,1.0889,0,0,1.0581,1.0572,1.0617,1.0627,1.0613,1.0626,1.0631,1.0712,1.0723,1.075,1.0756,1.0763,1.0777,1.0778,1.0888,1.0889,0,0,0,1.0567,1.0569,1.0589,1.0622,1.0637,1.0628,1.0634,1.0719,1.0726,1.0757,1.0765,1.0777,1.0779,1.0888,1.0888,1.0901,0,0,0,1.0565,1.0561,1.0587,1.0583,1.0635,1.0678,1.0638,1.0721,1.073,1.0764,1.0777,1.078,1.0887,1.0888,1.09,1.0909,0,0,0,1.0553,1.056,1.0571,1.0582,1.0616,1.0677,1.0689,1.0723,1.0735,1.0776,1.078,1.0887,1.0888,1.0899,1.0907,1.0935,0,0,0,1.0538,1.0583,1.0571,1.0624,1.0615,1.0684,1.0689,1.0742,1.0779,1.0778,1.0887,1.0888,1.0898,1.0906,1.0934,1.0957,1.0966,0,0,1.0589,1.0588,1.062,1.0612,1.0681,1.0673,1.0745,1.0788,1.0802,1.0859,1.0862,1.09,1.0907,1.0935,1.102,1.1026,0,0,0,1.0633,1.0656,1.0676,1.071,1.0743,1.0773,1.0806,1.0822,1.0871,1.0829,1.0919,1.0923,1.094,1.0951,1.0957,1.0972,1.0893,1.0893,1.0893,1.0693,1.0706,1.0759,1.0782,1.0815,1.0848,1.0877,1.0905,1.091,1.0931,1.0947,1.0997,1.101,1.1014,1.103,1.0961,1.0962,1.0962,1.0962,1.0769,1.0802,1.0807,1.086,1.0874,1.092,1.0954,1.0956,1.1001,1.0985,1.1001,1.0982,1.1021,1.1036,1.0963,1.0963,1.0962,1.0962,1.0962,1.0808,1.0826,1.0845,1.0895,1.0933,1.0955,1.0998,1.101,1.1022,1.1038,1.1056,1.1056,1.1057,1.1046,1.1046,1.1046,1.1046,1.1047,1.1047,1.0842,1.0862,1.0895,1.0934,1.0957,1.099,1.1024,1.1048,1.1078,1.1084,1.1084,1.1086,1.1023,1.1006,1.1049,1.1049,1.1048,1.1048,1.1048,1.0912,1.0898,1.0949,1.0973,1.102,1.1056,1.1071,1.1119,1.1141,1.1162,1.1161,1.1113,1.1113,1.1109,1.1095,1.1158,1.1158,1.1158,1.1158,1.0944,1.0946,1.1001,1.1037,1.1075,1.1094,1.1153,1.1181,1.1208,1.1222,1.1215,1.1198,1.1193,1.1197,1.119,1.1177,1.1261,1.1261,1.1261,1.0988,1.0993,1.104,1.1065,1.1103,1.1135,1.1191,1.1234,1.1262,1.1265,1.1234,1.123,1.1202,1.1193,1.1194,1.1184,1.1161,0,0]},{"header":{"parameterUnit":"m.s-1","parameterCategory":1,"la1":30.2992,"la2":30.254,"lo1":-89.0895,"lo2":-89.0443,"dy":0.0025,"dx":0.0025,"nx":19,"ny":19,"refTime":"2026-05-07T03:00:00:Z","depth":0,"parameterNumber":3,"parameterNumberName":"V-component_of_WINDS"},"data":[0,0,0,0.6311,0.6315,0.6539,0.654,0.6827,0.683,0,0,0,0,0,0,0,0,0,0,0,0.6248,0.625,0.631,0.6316,0.6539,0.654,0.6827,0.683,0,0,0,0,0,0,0,0,0,0,0,0.6247,0.6249,0.6252,0.6317,0.6538,0.654,0.6826,0.6657,0,0,0,0,0,0,0,0,0,0,0.644,0.6385,0.6249,0.6252,0.6318,0.6538,0.654,0.6649,0.6667,0.6728,0,0.6783,0,0.6811,0.6849,0.685,0,0,0,0.6314,0.637,0.6427,0.6252,0.632,0.6538,0.6438,0.6659,0.668,0.6753,0.6787,0.6798,0.6816,0.6851,0.6853,0.7206,0.7208,0,0,0.6302,0.629,0.6412,0.644,0.6407,0.643,0.6445,0.6672,0.6709,0.6788,0.6805,0.6821,0.6853,0.6856,0.7204,0.7207,0,0,0,0.6268,0.6281,0.6333,0.6429,0.6469,0.6437,0.6453,0.6699,0.6716,0.6808,0.6824,0.6855,0.6859,0.7203,0.7205,0.7279,0,0,0,0.626,0.6261,0.6327,0.6322,0.6465,0.6587,0.6475,0.6701,0.6727,0.6822,0.6855,0.6861,0.7201,0.7204,0.7273,0.7317,0,0,0,0.6232,0.6258,0.6291,0.6321,0.6417,0.6584,0.6614,0.6707,0.6737,0.6851,0.6862,0.7199,0.7203,0.7267,0.7308,0.7404,0,0,0,0.6199,0.6357,0.6292,0.6474,0.6415,0.6627,0.6613,0.6772,0.6879,0.6857,0.7201,0.7205,0.7266,0.7302,0.7398,0.7483,0.7517,0,0,0.6391,0.6379,0.6487,0.6436,0.6656,0.6594,0.6826,0.6935,0.6957,0.7121,0.713,0.7275,0.7307,0.7403,0.7714,0.7741,0,0,0,0.6543,0.662,0.6681,0.6781,0.6867,0.6943,0.7017,0.7057,0.7196,0.704,0.7336,0.7356,0.7413,0.7453,0.7477,0.7525,0.7224,0.7223,0.7223,0.68,0.6817,0.6994,0.7037,0.7133,0.7206,0.7285,0.735,0.7342,0.7411,0.746,0.7647,0.7695,0.7712,0.7762,0.7507,0.7507,0.7507,0.7507,0.7082,0.7193,0.7172,0.7337,0.7353,0.7492,0.7565,0.7553,0.7683,0.7613,0.7664,0.7586,0.7742,0.7786,0.7513,0.7512,0.7511,0.7511,0.751,0.7252,0.7308,0.7351,0.7493,0.76,0.7637,0.776,0.7771,0.7782,0.7832,0.7883,0.7882,0.788,0.7855,0.7856,0.7856,0.7857,0.7857,0.7858,0.7412,0.7458,0.7561,0.7661,0.7723,0.7806,0.7876,0.7938,0.8008,0.8005,0.8006,0.7988,0.7754,0.7694,0.7868,0.7866,0.7865,0.7864,0.7863,0.7692,0.7628,0.7789,0.7851,0.7965,0.8068,0.8078,0.82,0.8252,0.8312,0.8282,0.8107,0.8096,0.8078,0.8029,0.8279,0.8279,0.8279,0.8279,0.7835,0.7829,0.7992,0.8089,0.8186,0.8209,0.8385,0.8438,0.8483,0.8515,0.848,0.8415,0.8396,0.8397,0.8372,0.8326,0.8646,0.8646,0.8647,0.8007,0.801,0.816,0.8202,0.829,0.8365,0.853,0.864,0.8679,0.8662,0.854,0.8525,0.842,0.8386,0.8368,0.8329,0.8245,0,0]}]]